Location: Newark
(22.3060°N, 114.2134°E)
Time: 06:37:39
(UTC+00:00)

Explorer 11/Cluster Stage 4 - Pass Details

Date: 30 July 2021
Orbit: 467 x 1256 km, 28.8° (Epoch: 24 September)

Event Time Altitude Azimuth Distance (km) Brightness Sun altitude
Rises 01:33:59 0° 250° (WSW) 4,084 9.9 48.8°
Reaches altitude 10° 01:36:47 10° 251° (WSW) 3,173 9.4 49.4°
Maximum altitude 01:45:00 87° 341° (NNW) 1,255 8.6 51.3°
Drops below altitude 10° 01:53:04 10° 70° (ENE) 3,119 10.4 53.2°
Sets 01:55:48 0° 71° (ENE) 4,013 10.7 53.8°
